This is the latest recevied weather packets stored in our database for station/object N3LF. If no packets are shown the sender has not sent any weather packets the latest 10 day(s).
| Time | Temp. | Humidity | Pressure | Rain* | Wind** | Luminosity | Snow |
|---|---|---|---|---|---|---|---|
| 1777836656 | 20° C | 38% | 1021.7 hPa | 0 mm | - | 652 W/m² | - |
| 1777836352 | 19.44° C | 38% | 1021.6 hPa | 0 mm | - | 661 W/m² | - |
| 1777836048 | 19.44° C | 38% | 1021.7 hPa | 0 mm | - | 665 W/m² | - |
| 1777835745 | 20° C | 38% | 1021.8 hPa | 0 mm | - | 672 W/m² | - |
| 1777835443 | 20° C | 38% | 1021.9 hPa | 0 mm | - | 681 W/m² | - |
| 1777835139 | 20.56° C | 38% | 1022.1 hPa | 0 mm | - | 688 W/m² | - |
| 1777834837 | 19.44° C | 38% | 1022 hPa | 0 mm | - | 692 W/m² | - |
| 1777834533 | 18.89° C | 38% | 1022.2 hPa | 0 mm | - | 699 W/m² | - |
| 1777834232 | 18.89° C | 39% | 1022.1 hPa | 0 mm | - | 705 W/m² | - |
| 1777833929 | 20° C | 42% | 1022.1 hPa | 0 mm | - | 710 W/m² | - |
| 1777833626 | 18.89° C | 39% | 1022.1 hPa | 0 mm | - | 713 W/m² | - |
| 1777833322 | 20° C | 37% | 1022.2 hPa | 0 mm | - | 717 W/m² | - |
| 1777833019 | 20° C | 40% | 1022.1 hPa | 0 mm | - | 719 W/m² | - |
| 1777832718 | 18.33° C | 38% | 1022.4 hPa | 0 mm | - | 726 W/m² | - |
| 1777832415 | 18.33° C | 39% | 1022.2 hPa | 0 mm | - | 728 W/m² | - |
| 1777832112 | 18.89° C | 38% | 1022.4 hPa | 0 mm | - | 732 W/m² | - |
| 1777831808 | 18.89° C | 40% | 1022.7 hPa | 0 mm | - | 734 W/m² | - |
| 1777831506 | 18.89° C | 40% | 1022.6 hPa | 0 mm | - | 735 W/m² | - |
| 1777831203 | 18.89° C | 39% | 1022.5 hPa | 0 mm | - | 736 W/m² | - |
| 1777830901 | 19.44° C | 41% | 1022.7 hPa | 0 mm | - | 736 W/m² | - |
| 1777830596 | 18.89° C | 39% | 1022.9 hPa | 0 mm | - | 737 W/m² | - |
| 1777830295 | 18.33° C | 42% | 1023 hPa | 0 mm | - | 740 W/m² | - |
| 1777829990 | 18.89° C | 39% | 1023 hPa | 0 mm | - | 740 W/m² | - |
| 1777829686 | 19.44° C | 39% | 1023 hPa | 0 mm | - | 738 W/m² | - |
| 1777829383 | 18.33° C | 38% | 1023.1 hPa | 0 mm | - | 737 W/m² | - |
* Rain latest hour (hover to see other rain measurements)
** Current wind speed in m/s (hover to see current wind gust speed)